When you browse on this site, cookies collect data to enhance your experience and personalize the content and advertising you see.
Visit our Privacy Policy to learn more. By continuing to use the site, you agree to this use of cookies and data.

Hourly Weather Stara Zagora

Today, 12 July, Sunday

Time Temperature Precipitation Wind Pressure Humidity
00:00 +20°C° 0 mm 1 mps 741 mmHg 80%
01:00 +20°C° 0 mm 1 mps 741 mmHg 82%
02:00 +19°C° 0 mm 1 mps 740 mmHg 82%
03:00 +19°C° 0 mm 1 mps 740 mmHg 82%
04:00 +19°C° 0 mm 1 mps 740 mmHg 82%
05:00 +19°C° 0 mm 1 mps 740 mmHg 82%
06:00 +21°C° 0 mm 1 mps 740 mmHg 74%
07:00 +23°C° 0 mm 1 mps 741 mmHg 67%
08:00 +25°C° 0 mm 1 mps 741 mmHg 57%
09:00 +27°C° 0 mm 2 mps 741 mmHg 51%
10:00 +28°C° 0 mm 3 mps 741 mmHg 46%
11:00 +30°C° 0 mm 3 mps 741 mmHg 40%
12:00 +30°C° 0 mm 4 mps 741 mmHg 41%
13:00 +32°C° 0 mm 5 mps 741 mmHg 43%
14:00 +32°C° 0 mm 6 mps 740 mmHg 44%
15:00 +32°C° 0 mm 5 mps 740 mmHg 46%
16:00 +30°C° 0 mm 5 mps 740 mmHg 49%
17:00 +30°C° 0 mm 5 mps 740 mmHg 51%
18:00 +28°C° 0 mm 5 mps 740 mmHg 56%
19:00 +26°C° 0 mm 4 mps 740 mmHg 61%
20:00 +25°C° 0 mm 4 mps 740 mmHg 67%
21:00 +22°C° 0 mm 4 mps 740 mmHg 68%
22:00 +21°C° 0 mm 3 mps 741 mmHg 69%
23:00 +20°C° 0 mm 3 mps 741 mmHg 70%

Tomorrow, 13 July, Monday

Time Temperature Precipitation Wind Pressure Humidity
00:00 +20°C° 0 mm 3 mps 741 mmHg 70%
01:00 +19°C° 0 mm 3 mps 741 mmHg 70%
02:00 +18°C° 0 mm 3 mps 741 mmHg 70%
03:00 +18°C° 0 mm 3 mps 741 mmHg 70%
04:00 +17°C° 0 mm 2 mps 741 mmHg 71%
05:00 +16°C° 0 mm 2 mps 741 mmHg 71%
06:00 +17°C° 0 mm 3 mps 741 mmHg 67%
07:00 +18°C° 0 mm 3 mps 741 mmHg 63%
08:00 +19°C° 0 mm 3 mps 742 mmHg 60%
09:00 +20°C° 0 mm 4 mps 742 mmHg 57%
10:00 +22°C° 0 mm 4 mps 742 mmHg 55%
11:00 +23°C° 0 mm 4 mps 742 mmHg 53%
12:00 +23°C° 0 mm 5 mps 742 mmHg 53%
13:00 +23°C° 0 mm 5 mps 742 mmHg 53%
14:00 +23°C° 0 mm 6 mps 742 mmHg 53%
15:00 +23°C° 0 mm 5 mps 742 mmHg 54%
16:00 +23°C° 0 mm 5 mps 742 mmHg 54%
17:00 +23°C° 0 mm 5 mps 741 mmHg 54%
18:00 +21°C° 0 mm 4 mps 742 mmHg 60%
19:00 +20°C° 0 mm 3 mps 742 mmHg 65%
20:00 +18°C° 0 mm 2 mps 742 mmHg 70%
21:00 +17°C° 0 mm 2 mps 742 mmHg 72%
22:00 +17°C° 0 mm 2 mps 742 mmHg 73%
23:00 +16°C° 0 mm 1 mps 742 mmHg 74%

Day after tomorrow, 14 July, Tuesday

Time Temperature Precipitation Wind Pressure Humidity
00:00 +16°C° 0 mm 1 mps 742 mmHg 73%
01:00 +15°C° 0 mm 1 mps 742 mmHg 73%
02:00 +15°C° 0 mm 1 mps 742 mmHg 72%
03:00 +15°C° 0 mm 1 mps 742 mmHg 72%
04:00 +15°C° 0 mm 1 mps 742 mmHg 73%
05:00 +14°C° 0 mm 1 mps 742 mmHg 73%
06:00 +16°C° 0 mm 1 mps 742 mmHg 67%
07:00 +17°C° 0 mm 0 mps 743 mmHg 61%
08:00 +19°C° 0 mm 0 mps 743 mmHg 55%
09:00 +23°C° 0 mm 1 mps 743 mmHg 50%
10:00 +24°C° 0 mm 1 mps 742 mmHg 45%
11:00 +26°C° 0 mm 1 mps 742 mmHg 41%
12:00 +26°C° 0 mm 2 mps 742 mmHg 40%
13:00 +26°C° 0 mm 2 mps 742 mmHg 39%
14:00 +27°C° 0 mm 2 mps 742 mmHg 38%
15:00 +27°C° 0 mm 2 mps 741 mmHg 39%
16:00 +27°C° 0 mm 2 mps 741 mmHg 40%
17:00 +27°C° 0 mm 3 mps 741 mmHg 41%
18:00 +25°C° 0 mm 2 mps 741 mmHg 47%
19:00 +23°C° 0 mm 2 mps 741 mmHg 53%
20:00 +20°C° 0 mm 2 mps 741 mmHg 59%
21:00 +19°C° 0 mm 2 mps 741 mmHg 63%
22:00 +18°C° 0 mm 2 mps 742 mmHg 67%
23:00 +17°C° 0 mm 2 mps 742 mmHg 71%

15 July, Wednesday

Time Temperature Precipitation Wind Pressure Humidity
00:00 +16°C° 0 mm 1 mps 742 mmHg 73%
01:00 +16°C° 0 mm 1 mps 742 mmHg 75%
02:00 +15°C° 0 mm 1 mps 742 mmHg 77%
03:00 +15°C° 0 mm 1 mps 742 mmHg 78%
04:00 +15°C° 0 mm 1 mps 742 mmHg 78%
05:00 +15°C° 0 mm 1 mps 742 mmHg 79%
06:00 +18°C° 0 mm 1 mps 742 mmHg 72%
07:00 +20°C° 0 mm 1 mps 742 mmHg 65%
08:00 +22°C° 0 mm 1 mps 743 mmHg 58%
09:00 +24°C° 0 mm 1 mps 742 mmHg 52%
10:00 +25°C° 0 mm 1 mps 742 mmHg 46%
11:00 +27°C° 0 mm 1 mps 742 mmHg 40%
12:00 +28°C° 0 mm 1 mps 742 mmHg 37%
13:00 +28°C° 0 mm 2 mps 742 mmHg 35%
14:00 +29°C° 0 mm 2 mps 741 mmHg 33%
15:00 +29°C° 0 mm 2 mps 741 mmHg 34%
16:00 +29°C° 0 mm 2 mps 741 mmHg 34%
17:00 +29°C° 0 mm 2 mps 741 mmHg 35%
18:00 +27°C° 0 mm 2 mps 741 mmHg 41%
19:00 +25°C° 0 mm 2 mps 741 mmHg 46%
20:00 +21°C° 0 mm 2 mps 741 mmHg 52%
21:00 +21°C° 0 mm 2 mps 741 mmHg 55%
22:00 +20°C° 0 mm 2 mps 741 mmHg 58%
23:00 +19°C° 0 mm 2 mps 741 mmHg 61%

16 July, Thursday

Time Temperature Precipitation Wind Pressure Humidity
00:00 +19°C° 0 mm 1 mps 741 mmHg 63%
01:00 +19°C° 0 mm 1 mps 741 mmHg 64%
02:00 +18°C° 0 mm 1 mps 741 mmHg 66%
03:00 +18°C° 0 mm 1 mps 741 mmHg 67%
04:00 +16°C° 0 mm 1 mps 740 mmHg 67%
05:00 +15°C° 0 mm 0 mps 740 mmHg 68%
06:00 +17°C° 0 mm 0 mps 740 mmHg 62%
07:00 +19°C° 0 mm 0 mps 740 mmHg 56%
08:00 +21°C° 0 mm 0 mps 740 mmHg 51%
09:00 +23°C° 0 mm 0 mps 740 mmHg 47%
10:00 +25°C° 0 mm 0 mps 740 mmHg 42%
11:00 +27°C° 0 mm 0 mps 740 mmHg 38%
12:00 +30°C° 0 mm 1 mps 740 mmHg 37%
13:00 +31°C° 0 mm 1 mps 740 mmHg 35%
14:00 +31°C° 0 mm 1 mps 739 mmHg 34%
15:00 +31°C° 0 mm 2 mps 739 mmHg 34%
16:00 +31°C° 0 mm 2 mps 739 mmHg 35%
17:00 +31°C° 0 mm 2 mps 738 mmHg 36%
18:00 +29°C° 0 mm 2 mps 738 mmHg 41%
19:00 +26°C° 0 mm 3 mps 738 mmHg 46%
20:00 +24°C° 0 mm 3 mps 738 mmHg 52%
21:00 +22°C° 0 mm 3 mps 738 mmHg 54%
22:00 +21°C° 0 mm 2 mps 738 mmHg 57%
23:00 +20°C° 0 mm 2 mps 738 mmHg 59%

17 July, Friday

Time Temperature Precipitation Wind Pressure Humidity
00:00 +19°C° 0 mm 2 mps 738 mmHg 61%
01:00 +20°C° 0 mm 1 mps 738 mmHg 63%
02:00 +19°C° 0 mm 1 mps 738 mmHg 64%
03:00 +19°C° 0 mm 1 mps 738 mmHg 65%
04:00 +19°C° 0 mm 1 mps 737 mmHg 65%
05:00 +18°C° 0 mm 1 mps 737 mmHg 66%
06:00 +18°C° 0 mm 0 mps 737 mmHg 61%
07:00 +20°C° 0 mm 0 mps 737 mmHg 56%
08:00 +22°C° 0 mm 0 mps 738 mmHg 51%
09:00 +26°C° 0 mm 1 mps 737 mmHg 48%
10:00 +28°C° 0 mm 1 mps 737 mmHg 44%
11:00 +29°C° 0 mm 1 mps 737 mmHg 41%
12:00 +30°C° 0.3 mm 2 mps 737 mmHg 43%
13:00 +30°C° 0.3 mm 3 mps 737 mmHg 46%
14:00 +30°C° 0.3 mm 4 mps 737 mmHg 48%
15:00 +29°C° 0.2 mm 4 mps 737 mmHg 51%
16:00 +28°C° 0.2 mm 5 mps 737 mmHg 53%
17:00 +28°C° 0.2 mm 5 mps 737 mmHg 56%
18:00 +26°C° 0.1 mm 4 mps 737 mmHg 62%
19:00 +25°C° 0.1 mm 3 mps 737 mmHg 68%
20:00 +22°C° 0.1 mm 3 mps 737 mmHg 74%
21:00 +21°C° 0.6 mm 2 mps 737 mmHg 77%
22:00 +21°C° 0.6 mm 2 mps 738 mmHg 81%
23:00 +20°C° 0.6 mm 2 mps 738 mmHg 84%
Show more